Skip Page Navigation
NASA JPL Caltech
NASA Logo - Jet Propulsion Laboratory + View the NASA Portal
+ Center for Near-Earth Object Studies
JPL Home Earth Solar System Stars & Galaxies Technology
JPL Solar System Dynamics
BODIES ORBITS EPHEMERIDES TOOLS PHYSICAL DATA DISCOVERY FAQ SITE MAP
JPL Small-Body Database Browser
Search: [ help ]  
471150 (2010 FC49)
Classification: TransNeptunian Object          SPK-ID: 2471150
Ephemeris | Orbit Diagram | Orbital Elements | Physical Parameters | Discovery Circumstances ]

[ show orbit diagram ]
Orbital Elements at Epoch 2459200.5 (2020-Dec-17.0) TDB
Reference: JPL 11 (heliocentric ecliptic J2000)
 Element Value Uncertainty (1-sigma)   Units 
e .05447107954500666 1.1767e-05  
a 38.93660607026532 0.00067378 au
q 36.81568710379931 0.00095007 au
i 39.81654843141875 5.285e-05 deg
node 1.798655198033468 1.0475e-05 deg
peri 300.7112341168415 0.013199 deg
M 258.7793216770468 0.013375 deg
tp 2484152.324634555593
(2089-Apr-10.82463456)
2.7147 TDB
period 88743.29847681992
242.97
2.3035
0.006307
d
yr
n .004056644345871743 1.053e-07 deg/d
Q 41.05752503673133 0.00071048 au
  Orbit Determination Parameters
   # obs. used (total)      278  
   data-arc span      6669 days (18.26 yr)  
   first obs. used      2002-12-11  
   last obs. used      2021-03-15  
   planetary ephem.      DE441  
   SB-pert. ephem.      SB441-N16  
   condition code      2  
   norm. resid. RMS      .50745  
   source      ORB  
   producer      Otto Matic  
   solution date      2021-Apr-14 16:24:57  

Additional Information
 Earth MOID = 35.9582 au 
 Jupiter MOID = 32.3319 au 
 T_jup = 4.330 
[ show covariance matrix ]

Ephemeris | Orbit Diagram | Orbital Elements | Physical Parameters | Discovery Circumstances ]

Physical Parameter Table
Parameter Symbol Value Units Sigma Reference Notes
absolute magnitude H 5.88   n/a E2020R02  

471150 (2010 FC49)          Discovered 2010-Mar-18 by Rabinowitz, D. L., Tourtellotte, S. at La Silla
Reference: Last Updated: 2016-08-22
Ephemeris | Orbit Diagram | Orbital Elements | Physical Parameters | Discovery Circumstances ]
ABOUT SSD CREDITS/AWARDS PRIVACY/COPYRIGHT GLOSSARY LINKS
FirstGov 2021-May-09 13:22 UT
(server date/time)  
NASA Home Page
Site Manager:   Ryan S. Park
Webmaster  Alan B. Chamberlin